Weather in Gumarino

Russia / Republic of Karelia     62°57′49″N   33°07′01″E
temp.,
°C
wind,
m/s
gust,
m/s
humid.,
%
clouds,
%
prec.,
mm/h
press.,
hPa
HPBL,
m
15 august, mon
mon1500:00+15wsw117883 0.0 102111
03:00+14wsw118137 0.0 102111
06:00+14sw11775 0.0 102211
09:00+21sw12517 0.0 1022322
12:00+25s224051 0.0 10221206
15:00+26s233557 0.0 10211870
18:00+25sse234188 0.0 10201479
21:00+18se276967 0.0 1021128
16 august, tue
tue1600:00+17se2677100 0.0 1021110
03:00+16sse248198 0.0 102174
06:00+16ssw118399 0.0 102114
09:00+22s2364100 0.0 1021266
12:00+26s244982 0.0 1021941
15:00+28ssw353999 0.0 10202555
18:00+24s3752100 0.0 1020373
21:00+19sse38755 0.0 1020141
17 august, wed
wed1700:00+18s22795 0.0 102021
03:00+17s22785 0.0 102019
06:00+17s25790 0.0 1020102
09:00+23s36545 0.0 1019377
12:00+27s57395 0.0 10191835
15:00+28ssw563929 0.0 10182404
18:00+26ssw36467 0.0 1018822
21:00+20ssw22715 0.0 101844
18 august, thu
thu1800:00+17ssw288179 0.0 1019155
03:00+16ssw278510 0.0 1019143
06:00+16ssw27850 0.0 1019167
09:00+22ssw36636 0.0 1019499
12:00+26sw354925 0.0 10191511
15:00+25ssw2457100 0.1 1020569
18:00+24s1263100 0.0 102037
21:00+21sse227099 0.1 102044
19 august, fri
fri1900:00+20s117654 0.1 102116
03:00+18s118662 0.3 102211
06:00+17sse1184100 0.0 102211
09:00+22sse126388 0.0 1023277
12:00+27sse244471 0.0 10221260
15:00+28sse334186 0.0 10222037
18:00+22se3866100 0.3 1022199
21:00+20sse267896 0.6 1023119